Mount Pleasant, MI

2:52 AM EST on February 11, 2016 (GMT -0500)
Mount Pleasant Municipal

Weather History for KMOP - July, 2013

Change the Weather History Date:

Friday, July 19, 2013

  Actual Average (KAMN) Record (KAMN)
Temperature  
Mean Temperature 80 °F -  
Max Temperature 91 °F 84 °F 94 °F (1986)
Min Temperature 69 °F 61 °F 42 °F (2003)
Cooling Degree Days 15    
Growing Degree Days 30 (Base 50)    
Moisture  
Dew Point 69 °F    
Average Humidity 63    
Maximum Humidity 81    
Minimum Humidity 46    
Precipitation  
Precipitation 0.16 in - - ()
Sea Level Pressure  
Sea Level Pressure 29.78 in    
Wind  
Wind Speed 11 mph (SW)    
Max Wind Speed 25 mph    
Max Gust Speed 38 mph    
Visibility 10 miles    
Events Rain    
Averages and records for this station are not official NWS values.
T = Trace of Precipitation, MM = Missing Value Source: NWS Daily Summary

Daily Weather History Graph

Daily Weather History Graph

Search for Another Location

Airport or City:

Trip Planner

Search our weather history database for the weather conditions in past years. The results will help you decide how hot, cold, wet, or windy it might be!

Date:

Astronomy

Jul. 19, 2013 Rise Set
Actual Time 6:15 AM EDT 9:14 PM EDT
Civil Twilight 5:41 AM EDT 9:48 PM EDT
Nautical Twilight 4:57 AM EDT 10:32 PM EDT
Astronomical Twilight 4:05 AM EDT 11:23 PM EDT
Moon 6:16 PM EDT (7/19) 2:56 AM EDT (7/19)
Length of Visible Light 16h 07m
Length of Day
14h 59m
Waxing Gibbous, 86% of the Moon is Illuminated
Jul 19
Waxing Gibbous
Jul 22
Full
Jul 29
Last Quarter
Aug 6
New
Aug 14
First Quarter

Hourly Weather History & Observations

Time (EDT) Temp. Heat Index Dew Point Humidity Pressure Visibility Wind Dir Wind Speed Gust Speed Precip Events Conditions
12:15 AM 81.5 °F 84.6 °F 68.7 °F 65% 29.92 in 10.0 mi SSW 8.1 mph - N/A   Clear
12:34 AM 81.5 °F 84.6 °F 68.5 °F 65% 29.91 in 10.0 mi SSW 9.2 mph - N/A   Clear
12:55 AM 81.0 °F 84.1 °F 68.9 °F 67% 29.91 in 10.0 mi SW 10.4 mph - N/A   Clear
1:15 AM 80.6 °F 83.5 °F 68.9 °F 67% 29.90 in 10.0 mi SW 8.1 mph - N/A   Clear
1:34 AM 80.4 °F 83.4 °F 68.9 °F 68% 29.89 in 10.0 mi SSW 5.8 mph - N/A   Clear
1:55 AM 79.9 °F - 69.3 °F 70% 29.89 in 10.0 mi SW 8.1 mph - N/A   Clear
2:15 AM 79.7 °F - 69.6 °F 71% 29.88 in 10.0 mi SW 9.2 mph - N/A   Clear
2:34 AM 80.1 °F 83.2 °F 69.8 °F 71% 29.87 in 10.0 mi SW 10.4 mph - N/A   Clear
2:55 AM 80.2 °F 83.5 °F 70.0 °F 71% 29.87 in 10.0 mi SW 9.2 mph 16.1 mph N/A   Clear
3:15 AM 80.6 °F 83.9 °F 70.2 °F 70% 29.87 in 10.0 mi SW 11.5 mph 17.3 mph N/A   Clear
3:35 AM 80.2 °F 83.7 °F 70.7 °F 73% 29.86 in 10.0 mi SW 10.4 mph - N/A   Clear
3:55 AM 80.1 °F 83.4 °F 70.9 °F 73% 29.85 in 10.0 mi SW 11.5 mph 18.4 mph N/A   Clear
4:15 AM 80.4 °F 84.1 °F 70.9 °F 73% 29.85 in 10.0 mi SW 11.5 mph 16.1 mph N/A   Clear
4:35 AM 80.2 °F 83.7 °F 70.9 °F 73% 29.83 in 10.0 mi WSW 13.8 mph 19.6 mph N/A   Clear
4:55 AM 80.1 °F 83.4 °F 70.9 °F 73% 29.83 in 10.0 mi SW 11.5 mph 20.7 mph N/A   Clear
5:15 AM 79.9 °F - 70.9 °F 74% 29.82 in 10.0 mi SW 9.2 mph 17.3 mph N/A   Clear
5:35 AM 79.7 °F - 70.9 °F 74% 29.83 in 10.0 mi SW 10.4 mph - N/A   Clear
5:55 AM 79.5 °F - 70.9 °F 75% 29.82 in 10.0 mi SW 10.4 mph - N/A   Clear
6:15 AM 79.0 °F - 71.2 °F 77% 29.82 in 10.0 mi SSW 8.1 mph - N/A   Clear
6:35 AM 79.0 °F - 71.2 °F 77% 29.82 in 10.0 mi SSW 11.5 mph 18.4 mph N/A   Clear
6:55 AM 79.5 °F - 71.2 °F 76% 29.82 in 10.0 mi SW 10.4 mph 18.4 mph N/A   Clear
7:15 AM 79.9 °F - 71.2 °F 75% 29.82 in 10.0 mi SSW 11.5 mph 16.1 mph N/A   Clear
7:35 AM 80.4 °F 84.1 °F 71.2 °F 73% 29.82 in 10.0 mi SW 10.4 mph 17.3 mph N/A   Clear
7:55 AM 81.1 °F 85.2 °F 71.4 °F 72% 29.82 in 10.0 mi SW 13.8 mph 19.6 mph N/A   Clear
8:15 AM 82.0 °F 86.3 °F 71.1 °F 69% 29.82 in 10.0 mi SW 11.5 mph 18.4 mph N/A   Clear
8:35 AM 82.8 °F 87.2 °F 70.7 °F 67% 29.81 in 10.0 mi SW 12.7 mph 19.6 mph N/A   Clear
8:55 AM 83.7 °F 88.0 °F 70.5 °F 64% 29.81 in 10.0 mi SW 12.7 mph 19.6 mph N/A   Clear
9:15 AM 84.7 °F 89.4 °F 70.3 °F 62% 29.81 in 10.0 mi SW 13.8 mph 20.7 mph N/A   Clear
9:35 AM 85.5 °F 89.8 °F 69.6 °F 59% 29.80 in 10.0 mi SW 11.5 mph 24.2 mph N/A   Scattered Clouds
9:55 AM 86.4 °F 90.0 °F 68.7 °F 55% 29.80 in 10.0 mi WSW 16.1 mph 24.2 mph N/A   Clear
10:14 AM 87.4 °F 91.9 °F 69.3 °F 55% 29.79 in 10.0 mi SW 12.7 mph 25.3 mph N/A   Clear
10:35 AM 88.2 °F 91.7 °F 68.0 °F 51% 29.78 in 10.0 mi SW 18.4 mph 25.3 mph N/A   Clear
10:55 AM 88.9 °F 93.0 °F 68.4 °F 51% 29.78 in 10.0 mi SW 15.0 mph 23.0 mph N/A   Clear
11:14 AM 90.0 °F 93.2 °F 67.5 °F 47% 29.78 in 10.0 mi SW 25.3 mph 32.2 mph N/A   Scattered Clouds
11:35 AM 90.0 °F 93.2 °F 67.1 °F 47% 29.78 in 10.0 mi SW 17.3 mph 28.8 mph N/A   Mostly Cloudy
11:55 AM 90.0 °F 93.2 °F 67.3 °F 47% 29.76 in 10.0 mi SW 21.9 mph 28.8 mph N/A   Scattered Clouds
12:14 PM 89.8 °F 92.9 °F 66.9 °F 47% 29.76 in 10.0 mi SW 15.0 mph 33.4 mph N/A   Scattered Clouds
12:35 PM 89.8 °F 92.9 °F 67.3 °F 47% 29.76 in 10.0 mi WSW 15.0 mph 32.2 mph N/A   Clear
12:55 PM 90.5 °F 94.2 °F 68.0 °F 47% 29.75 in 10.0 mi SW 18.4 mph 25.3 mph N/A   Scattered Clouds
1:14 PM 91.6 °F 96.2 °F 68.7 °F 47% 29.74 in 10.0 mi WSW 19.6 mph 26.5 mph N/A   Scattered Clouds
1:35 PM 91.0 °F 94.7 °F 67.6 °F 46% 29.75 in 10.0 mi SW 17.3 mph 26.5 mph N/A   Mostly Cloudy
1:55 PM 78.3 °F - 68.2 °F 71% 29.76 in 2.0 mi SW 8.1 mph 38.0 mph 0.14 in Rain Light Rain
2:15 PM 77.0 °F - 70.9 °F 81% 29.76 in 10.0 mi West 5.8 mph - 0.02 in Rain Light Rain
2:35 PM 81.5 °F 87.4 °F 74.5 °F 79% 29.74 in 10.0 mi West 9.2 mph - 0.02 in   Clear
2:55 PM 87.3 °F 93.6 °F 71.6 °F 60% 29.73 in 10.0 mi SW 24.2 mph 32.2 mph 0.02 in   Clear
3:15 PM 88.2 °F 93.3 °F 70.3 °F 55% 29.73 in 10.0 mi WSW 23.0 mph 27.6 mph N/A   Scattered Clouds
3:35 PM 88.9 °F 93.8 °F 69.6 °F 53% 29.72 in 10.0 mi WSW 17.3 mph 32.2 mph N/A   Clear
3:55 PM 88.5 °F 93.5 °F 70.0 °F 54% 29.72 in 10.0 mi WSW 21.9 mph 28.8 mph N/A   Scattered Clouds
4:15 PM 89.6 °F 95.7 °F 70.7 °F 54% 29.72 in 10.0 mi WSW 15.0 mph 24.2 mph N/A   Scattered Clouds
4:35 PM 90.0 °F 94.1 °F 68.5 °F 49% 29.72 in 10.0 mi WSW 19.6 mph 29.9 mph N/A   Mostly Cloudy
4:55 PM 90.9 °F 94.4 °F 67.5 °F 46% 29.72 in 10.0 mi SW 20.7 mph 32.2 mph N/A   Scattered Clouds
5:15 PM 88.5 °F 91.9 °F 67.5 °F 50% 29.72 in 10.0 mi WSW 19.6 mph 29.9 mph N/A   Mostly Cloudy
5:35 PM 90.3 °F 94.7 °F 68.7 °F 49% 29.71 in 10.0 mi WSW 15.0 mph 20.7 mph N/A   Mostly Cloudy
5:54 PM 89.8 °F 94.2 °F 68.7 °F 50% 29.70 in 10.0 mi WSW 16.1 mph 26.5 mph N/A   Scattered Clouds
6:15 PM 89.8 °F 93.8 °F 68.5 °F 49% 29.70 in 10.0 mi SW 15.0 mph 28.8 mph N/A   Scattered Clouds
6:35 PM 88.7 °F 92.6 °F 68.2 °F 51% 29.69 in 10.0 mi WSW 15.0 mph 26.5 mph N/A   Scattered Clouds
6:54 PM 89.1 °F 93.3 °F 68.9 °F 51% 29.69 in 10.0 mi WSW 11.5 mph 23.0 mph N/A   Scattered Clouds
7:15 PM 87.3 °F 91.2 °F 68.7 °F 54% 29.70 in 10.0 mi WSW 10.4 mph 19.6 mph N/A   Scattered Clouds
7:34 PM 88.0 °F 92.1 °F 68.9 °F 53% 29.70 in 10.0 mi WSW 13.8 mph 21.9 mph N/A   Scattered Clouds
7:55 PM 86.9 °F 90.6 °F 68.5 °F 54% 29.70 in 10.0 mi WSW 11.5 mph 18.4 mph N/A   Clear
8:15 PM 86.2 °F 90.4 °F 69.1 °F 57% 29.71 in 10.0 mi WSW 6.9 mph - N/A   Clear
8:35 PM 85.5 °F 89.1 °F 68.5 °F 57% 29.71 in 10.0 mi WSW 10.4 mph - N/A   Clear
8:55 PM 84.2 °F 87.9 °F 68.9 °F 60% 29.71 in 10.0 mi WSW 5.8 mph - N/A   Clear
9:15 PM 83.8 °F 87.5 °F 68.9 °F 61% 29.71 in 10.0 mi WSW 5.8 mph - N/A   Clear
9:35 PM 83.3 °F 86.9 °F 69.1 °F 62% 29.71 in 10.0 mi WSW 8.1 mph - N/A   Clear
9:55 PM 81.7 °F 84.2 °F 67.1 °F 61% 29.76 in 10.0 mi NW 19.6 mph 33.4 mph N/A   Scattered Clouds
10:15 PM 71.2 °F - 61.7 °F 72% 29.73 in 10.0 mi Calm Calm - N/A   Scattered Clouds
10:35 PM 69.8 °F - 63.3 °F 80% 29.73 in 10.0 mi Calm Calm - N/A   Clear
10:55 PM 70.2 °F - 63.7 °F 80% 29.73 in 10.0 mi Calm Calm - N/A   Mostly Cloudy
11:15 PM 71.8 °F - 64.4 °F 77% 29.73 in 10.0 mi Calm Calm - N/A   Mostly Cloudy
11:35 PM 72.9 °F - 64.6 °F 75% 29.75 in 10.0 mi WNW 5.8 mph - N/A   Mostly Cloudy
11:55 PM 72.0 °F - 64.9 °F 78% 29.74 in 10.0 mi Calm Calm - N/A   Scattered Clouds